Overview Statistics Trail Chart Weather Telemetry Raw packets
 

This is the latest recevied weather packets stored in our database for station/object DB0OHL. If no packets are shown the sender has not sent any weather packets the latest 10 day(s).

<< 29 30 31 32 33 34 35 >>
Time Temp. Humidity Pressure Rain* Wind** Luminosity Snow
1777381536 18.33° C 50% 1020.5 hPa 0 mm - - -
1777380934 18.33° C 52% 1020.7 hPa 0 mm - - -
1777380331 18.33° C 53% 1020.7 hPa 0 mm - - -
1777379729 18.33° C 53% 1020.8 hPa 0 mm - - -
1777379126 18.33° C 52% 1020.8 hPa 0 mm - - -
1777378524 18.33° C 54% 1020.9 hPa 0 mm - - -
1777377921 18.33° C 54% 1021 hPa 0 mm - - -
1777377319 18.33° C 53% 1021 hPa 0 mm - - -
1777376716 17.78° C 56% 1020.9 hPa 0 mm - - -
1777376174 17.78° C 56% 1020.9 hPa 0 mm - - -
1777375571 18.33° C 56% 1020.9 hPa 0 mm - - -
1777374969 18.33° C 55% 1021 hPa 0 mm - - -
1777374366 17.78° C 57% 1020.9 hPa 0 mm - - -
1777373764 17.78° C 55% 1021 hPa 0 mm - - -
1777373161 17.78° C 56% 1020.9 hPa 0 mm - - -
1777372559 17.22° C 57% 1021.1 hPa 0 mm - - -
1777371956 17.22° C 57% 1021.1 hPa 0 mm - - -
1777371354 16.67° C 58% 1021 hPa 0 mm - - -
1777370751 16.67° C 59% 1021.2 hPa 0 mm - - -
1777370149 16.67° C 60% 1021.3 hPa 0 mm - - -
1777369546 16.11° C 59% 1021.5 hPa 0 mm - - -
1777368944 16.11° C 61% 1021.4 hPa 0 mm - - -
1777368341 16.11° C 61% 1021.5 hPa 0 mm - - -
1777367739 15.56° C 61% 1021.6 hPa 0 mm - - -
1777367136 15° C 63% 1021.5 hPa 0 mm - - -

* Rain latest hour (hover to see other rain measurements)
** Current wind speed in m/s (hover to see current wind gust speed)